Starlink 31093

operational
NORAD ID: 58717 Int'l Des: 2024-002 Owner: SPXS Country: US Constellation: starlink
LEOCIRCULAR

Starlink 31093について

説明を読み込み中...

リアルタイム位置

3D地球を読み込み中...

次回通過

高度履歴

Altitude vs Time

uPlot chart will show altitude changes over time

軌道要素

1 58717U 24002N 25258.50747255 .00002697 00000-0 10318-3 0 9993
2 58717 53.1615 323.6893 0001342 86.6503 273.4652 15.30187739 95190
Epoch: Sep 15, 2025 • Age: 9 hours

現在のステータス

高度 477.4 km
速度 7.63 km/s
衛星直下点 -7.12°S, 1.75°W
打ち上げ日 Jan 3, 2024
運用期間 1.7 years
タイプ internet

技術仕様

分類 Payload
質量 730.00 kg
乾燥質量 700.00 kg
総質量 730.00 kg
長さ 0.30 m
直径 4.10 m
スパン 29.00 m
形状 Box + pan
製造者 SPXS
バスタイプ Starlink V2M
フェーズステータス In Orbit
所有者/国 SPXS/US

大規模コンステレーション

Loading constellations...